Regional Weather Roundup
Issued by NWS

Home | Current Version | Previous Version | Text Only | Print | Product List | Glossary Off
Versions: 1 2 3 4 5 6 7 8 9 10 11 12 13 14 15 16 17 18 19 20 21 22 23 24 25 26 27 28 29 30 31 32 33 34 35 36 37 38 39 40 41 42 43 44 45 46 47 48 49 50

000
ASUS45 KSLC 270310
RWRUT

UTAH REGIONAL WEATHER ROUNDUP
NATIONAL WEATHER SERVICE SALT LAKE CITY UT
900 PM MDT TUE MAY 26 2015

UTZ001>011-023>025-270400-

NORTHERN UTAH

CITY           SKY/WX    TMP DP  RH WIND       PRES   REMARKS
BRIGHAM CITY   MOCLDY    57  49  75 NW6       30.05R
HILL AFB       MOCLDY    56  50  80 E6        30.04S
LOGAN          CLEAR     52  48  86 NW3       30.03
OGDEN          MOCLDY    56  49  77 CALM      30.03R
PROVO AIRPORT  MOCLDY    54  48  82 CALM      30.06R
SALT LAKE CITY MOCLDY    60  50  69 CALM      30.02S
VERNAL         MOCLDY    56  48  74 S10       30.04R
WENDOVER       CLOUDY    57  48  72 N12G26    30.03R
HEBER CITY     CLOUDY    54  43  66 CALM      30.07S
WEST JORDAN    PTCLDY    55  50  82 SE7       30.05R

$$

UTZ012>022-026-027-270400-

SOUTHERN/CENTRAL UTAH

CITY           SKY/WX    TMP DP  RH WIND       PRES   REMARKS
BLANDING       PTCLDY    57  48  72 N3        30.16R
BRYCE CANYON   MOCLDY    48  41  76 N8        30.19R
CEDAR CITY     CLOUDY    53  44  71 CALM      30.11R
DELTA          MOCLDY    58  44  58 S6        30.07R
HANKSVILLE     CLOUDY    64  39  39 CALM      30.03S
MILFORD        CLOUDY    53  47  79 SE9       30.06F
MOAB/CYNLANDS  CLOUDY    64  44  48 N17G32    30.00R
PRICE          CLOUDY    54  39  57 CALM      30.09R
ST GEORGE      CLOUDY    81  28  15 W6        29.91R

$$

REGIONAL REPORTS     COLORADO/ARIZONA

CITY           SKY/WX    TMP DP  RH WIND       PRES   REMARKS
CRAIG, CO      CLOUDY    49  43  80 S10       30.10F
GRAND JUNCTION LGT RAIN  55  49  80 NE12      30.09R
RIFLE          MOCLDY    52  48  86 W5        30.12R
MONTROSE       MOCLDY    54  48  80 W6        30.16R
CORTEZ         MOCLDY    56  46  69 SE7       30.10R
PAGE, AZ       MOCLDY    72  44  36 CALM      29.97R
GRAND CANYON   CLOUDY    63  29  27 SW8       30.14R
KINGMAN        MOCLDY    73  17  12 SW9       29.97R
FLAGSTAFF      PTCLDY    56  32  40 SW6       30.18R

$$

REGIONAL REPORTS    NEVADA/IDAHO/WYOMING

CITY           SKY/WX    TMP DP  RH WIND       PRES   REMARKS
LAS VEGAS, NV  MOCLDY    87  31  13 SW12      29.79R
ELY            MOCLDY    59  40  49 S10       30.06R
ELKO           CLOUDY    62  43  49 NE9       30.00R
POCATELLO, ID  MOCLDY    60  45  57 SW10      29.98R
BURLEY         MOCLDY    58  45  62 SW15      29.96R
EVANSTON, WY   CLOUDY    47  43  86 W7        30.11R
ROCK SPRINGS   LGT RAIN  50  44  80 W12       30.09R
KEMMERER       MOCLDY    45  43  93 W3        30.10S

$$



USA.gov is the U.S. government's official web portal to all federal, state and local government web resources and services.